sat.trackr.live / text

‹ back to catalog

STARLINK-3718

NORAD 52132 · 2022-029AW

PAYLOAD ACTIVE UNKNOWN

§ Identity

Operator
Country
US
Launch date
2022-03-19
Launch site
AFETR
Launch vehicle
Mass (kg)
RCS (m²)

Purposes: comms

External: N2YO · Heavens-Above · Gunter

§ Orbital elements

Epoch: 2026-05-25T02:57:52.674048Z

Period
95.44 min
Inclination
53.2140°
Eccentricity
0.0001322
Mean motion
15.08841322 rev/d
Perigee alt
538.8 km
Apogee alt
540.7 km
Semi-major
6,917.9 km
B*
-2.9099e-5
RAAN
85.9948°
Arg perigee
74.4716°
Mean anomaly
285.6422°
Rev number
23,247

§ Raw data

STARLINK-37181 52132U 22029AW  26145.12352632 -.00000751  00000+0 -29099-4 0  99972 52132  53.2140  85.9948 0001322  74.4716 285.6422 15.08841322232471

JSON: /api/v1/satellites/52132 · /tle

For live sub-satellite position, see the globe view (requires WebGL).

§ Visibility from observer

Set your observer location to see the next 7 days of passes ≥ 10°. The values pass through the URL so the page stays shareable.

No JS? Fill the form by hand. The geolocation button needs JavaScript.